Location: Fort Worth, Tx
(32.7431°N, 97.3695°W)
Time: 11:30:26
(UTC-04:00)

ISS - Visible Passes

Search period start: 25 June 2017 00:00
Search period end: 05 July 2017 00:00
Orbit: 401 x 408 km, 51.6° (Epoch: 26 June)

Date Brightness Start Highest point End Pass type
(mag) Time Alt. Az. Time Alt. Az. Time Alt. Az.
01 Jul -1.4 06:40:22 10° S 06:42:33 17° SE 06:44:45 10° E visible
03 Jul -3.2 06:31:40 14° SSW 06:34:20 50° SE 06:37:30 10° ENE visible
04 Jul -2.1 05:41:39 21° SE 05:42:11 22° SE 05:44:47 10° ENE visible
